CAPE
763 1905 2898 2658 2042 2100 2103 1806 1636 1716 1647 2388 2842 3058 2791 2780 2733 2557 2379 2311 2049 1514 1294 960 983 832 593 1053 1220 1349 1241 1246 1211 947 1397 1290 1143 1110 645 549 592 616 815
909 1732 2882 2832 2473 2243 2499 2271 1793 2099 1931 1924 2278 2355 2593 2830 2354 1759 2100 1722 1339 1233 1071 884 1062 1152 1222 1485 1348 1373 1550 2155 1674 1343 1232 1022 1254 1034 320 73 499 371 413
1286 1735 2245 2830 2927 2641 2593 2502 2191 1978 1869 1772 2098 1942 2059 2421 2185 1631 1561 1581 1207 949 869 930 1160 1227 1562 1503 1251 1256 1475 1580 1636 1380 1048 254 678 1227 1297 621 1396 1380 491
1312 1732 2004 2833 2931 2838 2852 2669 2402 1994 1948 1927 2089 1743 1656 2008 1885 1786 1609 1418 1695 1427 1289 1355 1586 1673 1583 1310 1160 1141 1506 1386 1160 874 441 173 715 1391 1276 808 740 1227 1485
1314 1650 1953 3057 3052 2660 2797 2893 2669 2684 2207 2176 1968 2118 1787 1988 1808 1741 1934 1647 1351 1646 1667 1680 1755 1640 1533 1009 1514 1452 1409 1099 1382 528 12 168 494 722 1487 1355 910 554 587
1110 1510 2690 3168 2871 2645 2638 2711 2600 2485 2689 2680 2170 2193 2175 2000 2001 1827 1902 1734 1667 1301 1519 1528 1723 1448 1518 1493 1284 940 1008 863 868 724 126 862 837 1466 1024 907 1208 765 81
994 1536 2383 3077 3097 3040 3115 3062 2658 2626 2747 2714 2386 2283 2065 1925 2174 1959 1845 1789 1828 1670 1564 1633 1312 1348 850 919 926 1170 1192 781 106 91 705 770 734 1703 1695 1458 1004 1110 453
917 1705 2115 2753 2975 2759 2641 2685 2390 2234 2235 2200 2602 2267 2160 2173 2060 1817 1665 1199 1311 1758 1673 1049 994 848 1500 1120 1315 1003 583 479 548 4 608 948 1462 1434 1330 1224 396 410 227
1107 1651 1926 2108 2027 2274 2641 2638 2560 2263 2241 2280 2279 2691 2464 2004 2020 1941 1939 1480 739 1630 1323 732 1355 1379 1383 1353 677 457 573 934 749 100 447 660 1660 1574 466 578 838 202 1275
1067 1330 1656 1793 1489 1642 1872 2681 2662 2439 1966 2284 2255 2338 2244 2032 1868 1764 2169 2082 639 1630 1723 1771 1308 1569 1392 784 580 1035 1108 1239 604 340 313 709 1641 1379 1409 1274 1186 892 871
914 1161 1292 1183 1132 1263 1623 1806 2652 2111 2318 2123 2117 2218 2137 1474 1625 1834 1799 1669 927 1152 1634 1752 1565 1232 1170 1007 1132 1167 1155 691 357 228 288 1284 2266 1984 1533 1268 1592 874 326
911 1096 1168 982 1037 1190 1774 1600 1744 1674 1577 1331 1539 1544 1384 1211 1136 1410 1531 1859 1193 1358 1583 1727 1416 1625 1290 676 566 1107 777 816 695 175 0 1431 2459 2473 1561 1598 1139 481 304
1036 1129 1055 1067 960 1112 1361 1193 1130 1102 1212 1048 885 889 1112 998 1271 1387 1065 1458 1040 1250 1159 1680 1465 1156 823 572 297 162 414 493 310 26 0 1658 2168 2444 1174 1381 1630 1101 721
945 993 986 975 918 978 1123 1211 1082 1027 914 868 820 716 913 816 684 935 885 985 859 254 833 1014 1134 1056 659 471 323 154 58 94 22 9 58 1935 1870 1960 1602 1330 1519 1038 636
867 886 891 825 750 693 890 1078 940 937 965 901 925 959 886 648 491 703 803 890 609 98 235 799 744 759 607 447 268 135 7 0 136 82 302 1789 1914 2195 2253 1655 1285 1082 773
927 848 847 805 666 636 764 603 676 806 825 673 793 847 1039 691 329 632 659 851 609 201 22 462 389 430 319 155 100 134 22 27 591 163 63 1144 1841 2124 2434 2202 2194 1580 1214
989 932 875 892 678 594 892 530 401 554 658 620 665 675 811 611 394 472 555 630 798 398 30 44 272 233 213 118 86 42 14 0 176 218 236 510 1087 1878 1866 2222 1862 2397 2255
1232 1159 1046 1058 916 905 943 742 598 676 640 668 742 686 795 664 522 205 394 492 574 447 469 311 175 230 362 212 217 106 125 0 0 99 333 466 704 991 1662 2096 2044 2003 2158
1438 1392 1409 1234 1115 1061 884 909 780 779 793 706 804 863 743 777 770 410 316 431 455 488 672 634 535 310 291 190 235 240 82 0 0 0 0 438 507 798 775 1206 1738 1717 1883
1492 1678 1635 1547 1184 1129 986 716 719 817 722 662 641 888 704 855 844 728 484 618 499 476 533 594 540 552 456 366 553 563 314 280 124 0 0 0 107 619 548 461 725 952 2182
1539 1730 1836 1758 1417 1207 1115 969 699 862 895 463 589 631 811 622 612 656 630 657 735 682 577 584 587 542 549 236 242 167 95 141 231 453 211 90 113 26 357 512 502 704 802
1592 1657 1881 1930 1722 1290 1128 1162 838 707 668 694 504 574 719 736 542 465 364 368 541 658 480 600 506 609 497 343 339 23 87 14 47 216 441 429 349 179 196 456 502 749 653
1738 1709 1733 1934 1846 1466 1185 1049 807 492 456 620 433 583 762 858 779 639 479 380 446 453 566 518 659 660 663 434 355 73 82 58 35 17 59 224 336 161 198 130 512 871 678
1715 1751 1648 1677 1817 1594 1334 1035 1202 913 762 835 548 443 702 831 843 890 783 579 554 371 335 479 689 636 418 426 254 282 47 64 149 73 36 123 179 214 128 423 180 133 552
1734 1775 1703 1581 1680 1585 1480 1213 1257 1096 753 382 519 387 693 564 632 693 730 578 591 737 598 521 605 624 564 249 172 246 354 132 103 159 161 158 94 165 96 131 1 0 2
1417 1768 1907 1680 1654 1661 1538 1331 1166 1083 814 632 629 443 589 660 515 546 618 623 421 521 623 586 481 517 492 423 222 159 221 225 216 112 132 109 95 68 88 96 146 162 115
CIN
-87 -27 -0 -0 -5 -8 -1 -6 -12 -1 -0 -0 -0 -0 -0 -0 -0 -0 -0 -0 -0 -0 -1 -4 -4 -7 -12 -6 -2 -1 -1 -1 -0 -0 -0 -0 -0 -0 -2 -5 -4 -3 -0
-133 -35 -0 -0 -0 -0 -0 -0 -4 -0 -0 -0 -0 -0 -0 -0 -0 -0 -0 -0 -0 -0 -0 -2 -2 -1 -5 -4 -3 -7 -2 -0 -0 -0 -0 -0 -0 -0 -18 -57 -6 -7 -10
-113 -31 -3 -0 -0 -0 -0 -0 -1 -10 -12 -14 -0 -0 -0 -0 -0 -0 -0 -0 -0 -2 -2 -0 -3 -5 -3 -3 -3 -0 -0 -0 -0 -1 -0 -24 -2 -0 -0 -0 -0 -0 -6
-132 -47 -14 -0 -0 -0 -0 -0 -0 -4 -1 -1 -0 -0 -0 -0 -0 -0 -0 -0 -0 -0 -0 -0 -0 -0 -2 -0 -0 -0 -0 -1 -1 -2 -27 -47 -2 -0 -0 -0 -0 -0 -0
-101 -69 -18 -0 -0 -0 -0 -0 -0 -0 -0 -0 -0 -0 -0 -0 -0 -0 -0 -0 -0 -0 -0 -0 -0 -0 -0 -1 -0 -2 -4 -3 -0 -9 -15 -39 -24 -0 -0 -0 -0 -3 -6
-128 -69 -0 -0 -0 -0 -0 -0 -0 -0 -0 -0 -0 -0 -0 -0 -0 -0 -0 -0 -0 -0 -0 -0 -0 -0 -0 -0 -3 -9 -8 -3 -1 -13 -52 -18 -18 -0 -0 -0 -0 -1 -64
-124 -54 -1 -0 -0 -0 -0 -0 -0 -0 -0 -0 -0 -0 -0 -0 -0 -0 -0 -0 -0 -0 -0 -0 -0 -0 -11 -8 -9 -10 -13 -9 -59 -86 -36 -43 -32 -0 -0 -0 -0 -0 -3
-160 -45 -13 -0 -0 -0 -0 -0 -0 -0 -0 -0 -0 -0 -0 -0 -0 -0 -0 -0 -0 -0 -0 -0 -0 -6 -0 -5 -11 -21 -27 -21 -30 -11 -46 -44 -12 -4 -0 -0 -15 -10 -24
-130 -76 -24 -3 -5 -0 -0 -0 -0 -0 -0 -0 -0 -0 -0 -0 -0 -0 -0 -0 -5 -0 -0 -8 -0 -2 -4 -8 -43 -52 -36 -20 -39 -81 -49 -62 -12 -9 -50 -31 -1 -40 -0
-147 -120 -68 -34 -48 -28 -8 -0 -0 -0 -0 -0 -0 -0 -0 -0 -0 -0 -0 -0 -8 -0 -0 -0 -0 -1 -5 -36 -53 -44 -22 -18 -52 -65 -61 -55 -13 -16 -11 -7 -0 -0 -0
-148 -128 -105 -109 -118 -96 -35 -6 -0 -0 -0 -0 -2 -0 -0 -9 -3 -1 -2 -0 -3 -0 -0 -0 -0 -19 -27 -35 -33 -39 -32 -72 -82 -102 -106 -37 -0 -2 -9 -16 -0 -7 -35
-208 -106 -110 -129 -129 -101 -21 -29 -16 -16 -14 -20 -14 -7 -16 -21 -21 -12 -2 -0 -0 -0 -0 -0 -2 -4 -25 -75 -83 -49 -89 -62 -101 -104 -0 -44 -0 -0 -10 -4 -13 -48 -50
-299 -154 -115 -114 -127 -110 -70 -91 -92 -90 -67 -69 -75 -76 -44 -44 -19 -15 -19 -2 -8 -2 -4 -2 -5 -32 -58 -86 -112 -132 -80 -78 -102 -127 -0 -51 -3 -0 -29 -20 -3 -14 -26
-336 -258 -163 -124 -126 -119 -111 -92 -106 -103 -115 -117 -108 -109 -73 -83 -83 -36 -37 -28 -38 -92 -38 -33 -42 -48 -87 -101 -115 -122 -142 -106 -141 -129 -172 -49 -23 -0 -10 -35 -16 -35 -53
-398 -341 -259 -174 -143 -157 -128 -104 -127 -131 -128 -131 -117 -94 -93 -128 -154 -103 -58 -43 -68 -178 -141 -66 -65 -76 -105 -124 -135 -129 -113 -0 -105 -182 -141 -57 -39 -8 -2 -13 -32 -39 -52
-460 -441 -350 -247 -203 -161 -149 -174 -169 -155 -148 -164 -144 -126 -85 -126 -198 -128 -97 -48 -78 -169 -257 -109 -126 -126 -151 -171 -166 -129 -109 -42 -54 -193 -152 -87 -52 -25 -11 -15 -7 -25 -29
-489 -458 -407 -307 -253 -197 -132 -189 -200 -172 -153 -166 -159 -156 -121 -147 -180 -148 -117 -91 -63 -124 -208 -188 -125 -142 -151 -172 -164 -160 -84 -0 -68 -122 -124 -121 -74 -38 -36 -22 -36 -12 -8
-469 -476 -420 -311 -260 -177 -119 -140 -147 -145 -139 -140 -134 -137 -115 -127 -149 -213 -140 -116 -96 -118 -104 -130 -143 -112 -99 -136 -128 -141 -106 -0 -0 -103 -103 -117 -114 -88 -62 -39 -37 -42 -31
-509 -477 -412 -341 -287 -206 -168 -111 -125 -127 -108 -125 -108 -111 -129 -106 -96 -156 -160 -118 -116 -109 -80 -90 -87 -111 -108 -141 -114 -102 -93 -0 -0 -0 -0 -118 -137 -117 -125 -90 -57 -50 -44
-539 -455 -438 -359 -335 -251 -202 -203 -149 -110 -114 -114 -128 -103 -143 -111 -98 -110 -130 -107 -125 -137 -107 -82 -64 -91 -86 -97 -70 -45 -95 -112 -133 -0 -0 -0 -156 -112 -123 -137 -119 -78 -45
-497 -474 -422 -382 -368 -304 -235 -210 -206 -127 -102 -187 -134 -116 -121 -152 -136 -116 -110 -117 -102 -95 -116 -106 -96 -95 -101 -152 -93 -117 -146 -146 -120 -105 -142 -168 -116 -161 -134 -133 -151 -133 -113
-551 -523 -463 -405 -391 -390 -331 -224 -229 -202 -201 -143 -169 -129 -113 -122 -141 -135 -138 -136 -115 -104 -126 -91 -94 -75 -82 -114 -80 -172 -72 -143 -192 -129 -120 -119 -116 -126 -122 -113 -135 -131 -145
-529 -542 -547 -449 -431 -427 -384 -316 -305 -316 -270 -167 -222 -143 -97 -103 -106 -112 -133 -144 -131 -121 -114 -131 -97 -70 -57 -110 -97 -92 -70 -99 -175 -235 -168 -135 -111 -160 -146 -140 -110 -103 -128
-592 -554 -546 -497 -420 -452 -422 -389 -270 -250 -220 -144 -178 -208 -128 -106 -96 -98 -113 -122 -113 -127 -119 -103 -98 -88 -99 -69 -93 -106 -140 -118 -65 -74 -206 -177 -195 -194 -204 -148 -177 -186 -153
-536 -570 -547 -512 -433 -439 -454 -395 -299 -244 -247 -298 -222 -238 -146 -160 -117 -100 -110 -124 -110 -93 -105 -100 -93 -86 -87 -124 -108 -104 -88 -113 -109 -58 -78 -99 -168 -196 -206 -191 -16 -0 -209
-170 -245 -420 -442 -409 -351 -429 -429 -377 -284 -255 -270 -204 -249 -199 -152 -172 -142 -128 -103 -136 -114 -94 -102 -104 -91 -85 -90 -108 -113 -58 -60 -69 -98 -73 -125 -110 -133 -147 -165 -184 -211 -242
Wind_Speed
12 13 17 17 17 16 16 15 17 16 16 17 17 18 20 21 20 17 18 17 17 16 15 14 14 13 13 14 13 14 15 18 18 18 17 17 17 16 15 15 15 11 16
15 14 18 17 17 17 17 16 16 15 16 16 16 17 18 18 18 17 16 16 17 16 15 14 12 11 12 13 12 12 15 16 17 18 17 15 15 18 17 16 15 13 15
16 13 14 17 17 17 17 16 16 15 15 16 14 15 16 16 17 16 15 15 15 15 14 12 12 11 11 12 12 12 14 15 16 16 16 4 7 14 16 14 13 16 16
17 14 13 17 17 17 17 16 16 15 15 15 15 14 15 15 14 16 15 15 14 15 14 12 13 12 10 12 13 13 13 14 15 16 6 5 10 15 16 15 14 14 14
16 13 14 19 18 18 17 16 16 15 15 14 15 15 14 15 14 14 14 14 15 14 15 13 13 12 10 10 11 10 12 14 16 12 5 5 6 12 14 14 14 14 13
15 13 18 20 20 18 18 18 17 16 15 14 14 15 14 15 13 13 13 14 14 15 14 13 13 12 10 10 10 8 8 10 8 4 8 9 6 14 15 14 13 14 13
15 13 16 20 19 19 19 19 18 17 17 15 15 15 14 14 14 13 13 13 13 14 14 13 11 11 10 9 10 8 7 5 4 8 8 7 8 14 15 14 13 13 12
18 15 14 19 19 20 20 21 20 18 18 16 15 15 13 14 13 13 13 13 12 12 13 12 11 11 10 9 8 7 5 3 6 5 4 6 11 15 15 14 13 13 12
16 15 13 13 16 21 20 20 20 18 17 16 14 14 14 13 13 13 13 13 12 12 12 13 12 10 10 7 5 5 4 4 3 6 7 4 15 16 16 15 14 12 11
14 15 14 12 11 10 11 18 18 18 16 15 16 15 14 14 13 14 12 12 13 12 13 11 12 10 9 7 5 3 3 3 2 5 5 4 14 17 17 17 14 13 12
12 13 12 12 10 9 7 12 16 19 17 17 15 15 12 4 7 11 10 13 13 13 12 12 11 10 9 7 5 4 2 1 2 3 4 10 14 17 17 16 16 14 13
15 13 11 11 12 11 9 7 6 8 5 5 5 6 5 5 5 7 10 13 13 13 12 12 11 10 8 2 1 5 1 4 4 3 5 13 15 17 17 16 15 15 14
19 12 13 11 11 12 10 6 4 3 4 4 6 5 5 4 4 4 3 4 4 10 4 6 6 3 4 3 3 2 2 4 3 3 7 17 16 16 17 16 17 16 15
19 18 15 13 12 10 7 7 6 5 5 5 6 7 5 4 4 4 4 4 4 3 4 4 3 4 5 5 5 3 5 4 3 3 6 17 15 15 17 17 17 17 16
18 18 18 16 13 10 10 7 7 7 6 6 6 7 6 5 5 5 5 5 4 4 4 4 4 4 4 5 4 5 5 5 4 2 4 17 16 17 17 17 17 17 17
20 19 19 18 16 13 11 10 8 7 7 6 6 7 8 6 5 6 6 6 5 4 4 5 5 5 5 4 5 5 5 3 5 5 4 6 17 17 17 17 18 18 17
20 20 20 19 17 14 13 12 8 7 7 7 7 6 7 6 7 6 6 6 6 5 6 4 4 3 4 3 6 5 4 5 4 7 5 4 5 15 15 17 18 18 18
20 22 20 17 18 15 13 11 8 7 7 7 6 6 9 9 8 6 6 6 5 5 5 4 4 4 4 4 4 5 5 5 6 5 5 6 6 6 12 18 17 18 19
22 22 21 19 19 17 13 10 9 8 7 7 7 7 9 10 10 8 6 6 6 4 5 4 4 4 4 3 4 4 4 5 5 4 7 7 8 8 6 11 17 18 19
21 21 21 18 18 17 11 9 6 6 6 6 7 8 10 9 11 8 7 5 6 5 5 4 5 4 3 4 3 2 2 4 4 4 5 6 6 8 8 8 7 10 18
19 21 21 20 19 14 10 10 9 10 7 7 9 11 9 9 9 9 6 6 5 7 8 9 4 6 5 4 2 2 2 5 5 5 4 5 5 7 8 8 6 6 7
23 22 22 21 21 16 12 11 8 9 3 7 8 8 10 11 9 9 8 7 7 4 6 5 4 2 2 4 3 2 2 4 3 6 5 5 7 4 5 9 8 8 8
22 24 23 22 22 19 17 11 3 3 2 3 4 6 8 11 12 11 9 7 7 6 7 7 6 7 4 4 5 4 1 5 1 2 5 5 5 4 6 4 6 6 6
25 21 21 21 21 19 19 16 17 11 11 9 6 4 6 11 11 11 11 9 9 5 5 6 6 5 4 4 1 5 2 3 3 3 2 2 2 5 3 3 2 4 4
21 23 20 20 20 19 19 17 14 13 8 4 3 7 8 9 13 13 11 9 9 7 7 8 5 5 5 4 4 3 4 3 2 2 4 4 2 3 4 5 4 4 5
5 6 16 18 18 16 19 19 18 17 10 5 7 7 7 7 8 10 11 10 9 9 9 9 8 8 8 6 4 5 5 4 5 4 6 3 3 4 4 4 4 3 4
Wind_Direction
163 160 158 155 149 142 135 128 122 116 114 111 111 108 108 110 117 117 120 124 126 124 123 115 112 113 117 111 115 120 119 120 121 123 124 123 124 122 117 119 117 110 110
139 152 155 155 155 153 143 135 130 125 119 111 109 109 111 111 114 124 125 127 131 131 131 125 118 119 123 118 118 119 119 119 129 127 123 126 129 129 117 124 127 122 121
137 148 151 155 154 152 146 140 135 128 124 120 118 116 114 116 118 122 127 134 134 133 135 134 127 130 127 124 120 120 128 126 132 127 113 101 119 131 127 126 117 125 122
140 146 150 156 154 152 148 143 138 138 137 134 131 129 128 126 128 123 125 133 133 138 139 136 128 133 138 124 125 131 135 132 132 130 115 120 114 131 130 127 127 120 123
139 143 155 156 155 155 152 147 148 147 146 146 140 140 138 132 133 130 133 136 137 133 136 137 138 138 141 136 136 136 139 142 140 133 123 115 119 131 127 135 134 130 126
140 145 153 154 155 156 156 157 157 155 153 153 150 150 144 138 138 134 138 142 142 141 139 142 148 142 148 150 144 135 135 147 168 196 144 146 133 139 143 142 142 135 136
146 153 151 154 154 156 157 160 160 161 159 158 158 149 147 147 143 136 139 136 140 146 147 150 148 149 165 164 146 149 133 127 99 123 151 144 152 151 143 144 143 143 146
152 155 156 158 157 157 155 156 161 165 160 161 158 149 154 147 144 141 147 143 148 148 151 148 158 163 171 166 153 139 136 81 77 127 140 152 155 147 150 147 152 156 157
154 150 156 159 162 160 157 157 158 164 164 159 158 156 156 154 157 154 157 150 152 152 151 154 161 166 179 174 174 156 129 93 85 161 168 180 162 158 158 157 158 158 158
156 156 158 160 159 158 163 162 161 163 167 163 159 160 159 160 163 164 161 154 157 156 157 162 166 177 184 187 195 181 124 99 130 144 169 193 172 167 165 163 162 164 166
156 159 161 162 156 153 156 169 166 165 166 167 166 165 164 147 161 162 161 166 162 163 162 170 176 185 197 197 215 227 185 209 226 196 171 192 191 176 170 168 170 172 175
160 167 167 164 162 157 164 171 164 172 162 159 160 159 146 160 157 153 169 175 168 169 170 178 186 196 206 197 257 261 139 229 198 194 178 190 195 188 177 174 174 177 181
165 163 171 169 168 166 167 159 164 154 153 155 164 165 161 158 172 151 163 177 159 179 172 180 184 194 191 208 247 246 240 238 251 213 183 189 194 194 186 184 180 184 189
167 169 171 173 173 178 162 168 166 167 168 173 179 177 167 168 171 166 169 170 169 157 173 180 178 208 204 217 222 244 242 251 248 178 173 179 194 202 196 188 188 193 195
171 172 173 173 178 177 171 172 174 181 181 183 180 182 173 180 168 155 175 168 178 171 172 184 192 213 223 234 229 215 238 233 172 160 154 184 193 207 204 199 198 202 202
172 174 172 177 180 177 179 177 183 185 185 183 186 190 188 174 163 168 170 181 187 183 183 192 190 198 227 228 251 226 204 208 162 177 184 198 197 211 210 204 205 208 211
179 173 176 175 180 181 183 180 181 188 182 187 194 177 172 171 175 171 176 185 193 187 184 202 209 210 226 241 261 266 200 205 174 174 182 191 217 218 218 217 209 208 214
176 174 175 177 179 179 183 182 182 186 185 191 185 183 182 182 173 177 186 192 193 177 184 184 191 214 232 216 223 243 241 202 193 200 193 190 198 210 231 227 219 218 213
177 176 174 177 178 181 181 184 186 177 184 193 190 186 187 187 185 176 193 197 172 183 195 178 209 182 208 212 204 230 233 246 234 185 201 199 202 206 210 230 228 226 222
178 178 173 172 178 179 177 179 189 187 184 184 192 194 182 189 186 183 191 194 177 176 194 178 194 196 181 193 200 227 281 273 265 247 230 203 206 206 212 219 220 229 230
180 176 179 170 175 174 181 182 191 200 198 189 195 192 187 183 182 184 191 184 183 192 200 196 182 186 212 171 118 309 278 240 262 252 236 246 220 202 208 214 212 213 225
179 181 177 179 171 178 181 188 192 193 185 191 188 189 187 184 184 187 187 184 187 179 189 188 177 153 213 180 149 93 284 315 266 233 229 225 233 229 223 219 211 214 216
181 184 181 178 176 176 178 177 132 119 113 167 181 186 196 190 192 193 195 190 184 185 189 185 177 175 190 207 190 153 142 231 328 292 250 241 236 212 233 221 218 222 227
191 180 178 177 183 175 173 178 182 194 200 206 191 174 186 190 193 193 197 190 186 185 183 188 186 182 150 195 248 232 203 152 190 313 317 332 246 237 195 192 184 245 246
177 181 179 178 183 181 172 178 183 193 196 186 173 168 188 194 195 194 200 186 188 184 190 188 182 185 187 165 179 157 235 234 208 172 259 281 300 247 229 229 215 229 205
333 230 176 182 186 188 176 174 184 190 180 166 192 190 193 196 196 200 196 197 195 187 185 190 189 198 207 216 210 197 188 179 209 187 231 228 238 274 219 234 227 227 284